ATLAS 5 CENTAUR DEB, 53516

Orbit data source: Space-Track

ATLAS 5 CENTAUR DEB, 53516 is space debris in HEO originally from a launch on Wed, 17 Sep 2014 UTC launched from the Air Force Eastern Test Range (AFETR). Debris objects in space refer to the collection of defunct objects orbiting the Earth. Examples of debris include non-operational satellites, rocket bodies, and fragments generated from explosions, collisions, or faulty payload assembly.

Loading next visibility...
Identifier
53516, 2014-055DP
Orbit
HEO
Country
Flag of USUS
Related business
Flag of USUnited Launch Alliance/Lockheed Martin (US)
Manufacturer
Unknown
Mission
Spacecraft
Bus & Motor
Unknown
Mass
Unknown
Launch date (UTC)
2014-09-17 (11 years ago)
Launch vehicle
Unknown
Launch site
Air Force Eastern Test Range (AFETR)
Object type
Payload
Rocket body
Debris
Shape & HBR
Unknown shape, 1.1 m
Radar Cross Section
Small (<0.1 m²)

Expand to show TLE details & history
Last TLE update: 2 weeks ago

TLE from 2 weeks ago
0 ATLAS 5 CENTAUR DEB
1 53516U 14055DP  26057.86024154 -.00000053  00000-0  00000-0 0  9994
2 53516  19.5185 166.3150 4795472 123.3593 291.7926  1.82544905 24063
Epoch: 2026-02-26T20:38Z
TLE epoch observation values (Epoch: 2026-02-26T20:38:44.869Z)
Latitude
0.00005°
Longitude
59.84938°
Altitude
23,234.99 km
Speed
3.581 km/s
True Right ascension
11h 04m 57s
True Declination
0° 00' 00"
Sunlit
Object was in full shadow at epoch
Visualization orbit readout
Latitude
Unknown
Longitude
Unknown
Altitude
Unknown
Speed
Unknown
Apparent Right ascension
Unknown
Apparent Declination
Unknown
Sunlit
N/A
Visualization observer readout
Local Sidereal Time
10:12:43
Azimuth
Unknown
Elevation
Unknown
Doppler factor
Unknown
Orbital elements
Apogee altitude
35,467.218 km
Perigee altitude
8,341.591 km
Semi-major axis
28,282.541 km
Eccentricity
0.47955
Inclination
19.5185°
RAAN
166.315°
Arg. of periapsis
123.3593°
True anomaly
236.57989°
Mean anomaly
291.7926°
Eccentric anomaly
264.44558°
Mean motion
0.45632 °/min
Orbital period
788.93 mins
BSTAR
0
Loading maneuver chart data...
Computing Atmospheric mass density...

Documentation

Showing up to 5 results
|